EST,Max TemperatureF,Mean TemperatureF,Min TemperatureF,Max Dew PointF,MeanDew PointF,Min DewpointF,Max Humidity, Mean Humidity, Min Humidity, Max Sea Level PressureIn, Mean Sea Level PressureIn, Min Sea Level PressureIn, Max VisibilityMiles, Mean VisibilityMiles, Min VisibilityMiles, Max Wind SpeedMPH, Mean Wind SpeedMPH, Max Gust SpeedMPH,PrecipitationIn, CloudCover, Events, WindDirDegrees
2013-1-1,29,18,7,23,7,-5,88,64,40,29.80,29.67,29.56,10,10,10,23,8,32,T,2,,277
2013-1-2,13,3,-7,-4,-8,-11,79,60,41,30.00,29.88,29.81,10,10,10,23,8,30,0.00,0,,296
2013-1-3,17,7,-3,0,-5,-11,65,58,50,30.07,30.00,29.93,10,10,10,16,7,18,0.00,3,,298
2013-1-4,29,12,-5,21,10,-6,95,82,68,29.92,29.77,29.68,10,10,10,12,3,16,0.00,6,,199
2013-1-5,32,17,1,22,9,0,83,60,36,30.28,30.01,29.67,10,10,6,29,9,36,T,4,Snow,289
2013-1-6,22,13,4,18,11,2,92,84,76,30.25,30.03,29.90,10,6,0,13,2,15,0.03,7,Fog-Snow,4
2013-1-7,17,6,-5,14,5,-7,91,77,54,30.41,30.24,29.98,10,9,2,14,9,,0.00,4,Snow,12
2013-1-8,37,19,1,20,12,-1,96,72,47,30.34,30.26,30.17,10,10,9,8,3,10,0.00,3,,247
2013-1-9,37,21,4,34,23,4,100,82,64,30.42,30.15,29.82,10,8,3,14,3,20,0.02,5,Fog-Rain-Snow,194
2013-1-10,40,33,26,29,23,16,85,67,48,30.50,30.17,29.81,10,10,9,31,11,44,0.01,2,,297
2013-1-11,34,24,14,21,16,12,88,67,45,30.53,30.41,30.27,10,10,8,12,4,15,T,5,Rain-Snow,4
2013-1-12,39,35,31,37,31,22,100,85,69,30.27,30.17,30.09,10,7,0,10,3,12,T,8,Fog,168
2013-1-13,42,38,34,42,38,34,100,100,100,30.15,30.06,29.93,3,1,0,10,3,14,0.00,8,Fog,190
2013-1-14,51,42,33,46,38,21,100,75,49,30.20,29.94,29.82,10,4,0,16,5,24,0.01,4,Fog,228
2013-1-15,34,29,24,23,19,16,74,63,51,30.31,30.26,30.21,10,10,10,13,5,15,0.00,6,,327
2013-1-16,32,28,24,32,25,17,100,84,68,30.27,30.00,29.76,10,3,0,8,3,10,0.20,8,Fog-Snow,79
2013-1-17,36,22,7,30,18,-11,100,69,38,30.16,29.87,29.73,10,8,2,22,5,28,0.04,6,Snow,285
2013-1-18,11,5,-2,-7,-10,-13,69,54,38,30.38,30.28,30.16,10,10,10,21,8,28,0.00,2,,316
2013-1-19,30,16,1,22,14,-6,88,70,52,30.35,30.10,29.91,10,7,2,10,3,13,T,8,Snow,201
2013-1-20,44,32,19,36,25,-1,100,70,39,29.87,29.62,29.39,10,9,7,26,6,40,0.02,5,Rain-Snow,235
2013-1-21,19,14,8,5,-3,-6,61,49,37,30.03,29.95,29.82,10,10,10,21,8,30,0.00,3,,289
2013-1-22,13,8,3,-1,-6,-14,72,56,39,29.96,29.88,29.83,10,10,10,17,9,22,0.00,5,,339
2013-1-23,4,-1,-6,-13,-18,-20,56,44,32,30.04,30.01,29.97,10,10,10,21,8,30,0.00,0,,288
2013-1-24,8,0,-8,-11,-16,-20,57,46,35,30.04,29.96,29.87,10,10,10,24,10,30,0.00,2,,290
2013-1-25,17,9,0,-3,-7,-12,69,53,37,30.15,30.10,30.05,10,10,10,23,8,31,0.00,3,,295
2013-1-26,16,10,3,-3,-5,-8,72,56,40,30.08,30.04,29.97,10,10,10,23,6,28,0.00,6,,330
2013-1-27,22,14,5,2,-2,-8,69,55,41,30.39,30.26,30.08,10,10,10,23,13,31,0.00,1,,305
2013-1-28,24,14,3,14,1,-5,79,53,27,30.41,30.26,30.09,10,10,10,8,3,13,0.00,6,,239
2013-1-29,33,21,8,19,14,7,100,74,47,30.23,30.17,30.09,10,10,10,10,1,13,0.00,5,,115
2013-1-30,52,41,30,52,42,22,100,82,63,30.16,29.72,29.41,10,4,0,23,11,33,0.08,8,Fog-Rain,180
2013-1-31,54,42,29,53,41,8,100,72,43,29.38,29.08,28.77,10,6,2,39,18,56,0.46,7,Rain,212